Home   Weather   Tucson   Past weeks
Flag for USA

Past Weather in Tucson, Arizona, USA — Yesterday and Last 2 Weeks

Now
72 °F

Sunny.


Feels Like: 74 °F
Forecast: 80 / 52 °F
Wind: 9 mph from Southeast

Location: Davis-Monthan Air Force Base

Current Time: Apr 6, 2020 at 11:53:11 am

Latest Report: Apr 6, 2020 at 10:58 am


Visibility: 10 mi

Pressure: 29.88 "Hg (27.38 "Hg at 758m altitude)

Humidity: 17%

Dew Point: 25 °F

Location of TucsonLocation

Past Weather in Tucson — Graph

°F

Tucson Temperature Yesterday

Maximum temperature yesterday: 82 °F (at 3:38 pm)
Minimum temperature yesterday: 56 °F (at 4:58 am)
Average temperature yesterday: 69 °F

High & Low Weather Summary for the Past Weeks

 TemperatureHumidityPressure
High84 °F (Apr 1, 3:11 pm)69% (Mar 24, 5:58 am)30.14 "Hg (Mar 24, 5:58 am)
Low36 °F (Mar 28, 5:58 am)8% (Apr 5, 2:58 pm)29.67 "Hg (Apr 1, 3:58 pm)
Average63 °F30%29.89 "Hg
* Reported Mar 22 9:58 am — Apr 6 9:58 am, Tucson. Weather by CustomWeather, © 2020

Note: Actual official high and low records may vary slightly from our data, if they occured in-between our weather recording intervals... More about our weather records

Tucson Weather History for the Previous 24 Hours

Scroll right to see more
 ConditionsComfort  
Time TempWeatherWind HumidityBarometerVisibility
9:58 am
Mon, Apr 6
70 °FSunny.8 mph20%29.90 "Hg10 mi
8:58 am67 °FSunny.3 mph21%29.89 "Hg10 mi
7:58 am61 °FSunny.8 mph28%29.88 "Hg10 mi
6:58 am52 °FSunny.6 mph42%29.88 "Hg10 mi
5:58 am48 °FClear.9 mph49%29.86 "Hg10 mi
4:58 am53 °FClear.6 mph42%29.83 "Hg10 mi
3:58 am54 °FClear.6 mph39%29.81 "Hg10 mi
2:58 am57 °FClear.3 mph35%29.80 "Hg10 mi
1:58 am57 °FClear.9 mph36%29.81 "Hg10 mi
12:58 am60 °FClear.5 mph33%29.81 "Hg10 mi
11:58 pm
Sun, Apr 5
62 °FClear.5 mph30%29.82 "Hg10 mi
10:58 pm64 °FPassing clouds.3 mph27%29.80 "Hg10 mi
9:58 pm68 °FPassing clouds.3 mph23%29.79 "Hg10 mi
8:58 pm67 °FPassing clouds.7 mph21%29.78 "Hg10 mi
7:58 pm71 °FPassing clouds.6 mph17%29.74 "Hg10 mi
6:58 pm76 °FOvercast.9 mph13%29.72 "Hg10 mi
5:58 pm78 °FPassing clouds.15 mph11%29.70 "Hg10 mi
4:58 pm80 °FSunny.14 mph10%29.70 "Hg10 mi
3:58 pm82 °FSunny.14 mph8%29.70 "Hg10 mi
3:38 pm82 °FSunny.13 mph9%29.70 "Hg10 mi
2:58 pm82 °FSunny.16 mph8%29.71 "Hg10 mi
1:58 pm81 °FSunny.8 mph10%29.73 "Hg10 mi
12:58 pm79 °FSunny.15 mph11%29.75 "Hg10 mi
11:58 am77 °FSunny.9 mph12%29.78 "Hg10 mi
Weather by CustomWeather, © 2020

See weather overview

Advertising